When you browse on this site, cookies collect data to enhance your experience and personalize the content and advertising you see.
Visit our Privacy Policy to learn more. By continuing to use the site, you agree to this use of cookies and data.
  • en Suisse
  • Liste des pays
  • À 7 jours
  • Température de l'eau
  • Carte météo
  • Widgets météo
  • user-avatar
    Se connecter

    Météo par heure à Klagenfurt

    Ce jour, 26 Août, Lundi

    Heure Température Précipitation Vent Pression Humidité
    00:00 +15°C° 0 mm 1 m/s 693 mmHg 92%
    01:00 +15°C° 0 mm 1 m/s 693 mmHg 92%
    02:00 +15°C° 0.1 mm 1 m/s 693 mmHg 93%
    03:00 +15°C° 0.1 mm 1 m/s 693 mmHg 93%
    04:00 +15°C° 0.1 mm 1 m/s 693 mmHg 94%
    05:00 +16°C° 0.2 mm 1 m/s 693 mmHg 93%
    06:00 +16°C° 0.2 mm 1 m/s 693 mmHg 92%
    07:00 +18°C° 0.2 mm 1 m/s 693 mmHg 92%
    08:00 +20°C° 0.3 mm 1 m/s 693 mmHg 86%
    09:00 +21°C° 0.3 mm 1 m/s 694 mmHg 81%
    10:00 +23°C° 0.3 mm 1 m/s 694 mmHg 76%
    11:00 +23°C° 0.9 mm 1 m/s 694 mmHg 75%
    12:00 +23°C° 0.9 mm 1 m/s 694 mmHg 75%
    13:00 +24°C° 0.9 mm 1 m/s 694 mmHg 75%
    14:00 +24°C° 0.5 mm 1 m/s 693 mmHg 74%
    15:00 +24°C° 0.5 mm 1 m/s 693 mmHg 73%
    16:00 +24°C° 0.5 mm 1 m/s 693 mmHg 72%
    17:00 +22°C° 0.1 mm 1 m/s 693 mmHg 77%
    18:00 +20°C° 0.1 mm 1 m/s 692 mmHg 83%
    19:00 +17°C° 0.1 mm 0 m/s 692 mmHg 88%
    20:00 +16°C° 0.2 mm 0 m/s 692 mmHg 88%
    21:00 +18°C° 0.2 mm 1 m/s 692 mmHg 88%
    22:00 +16°C° 0.2 mm 1 m/s 692 mmHg 88%
    23:00 +16°C° 0.1 mm 1 m/s 692 mmHg 88%

    Demain, 27 Août, Mardi

    Heure Température Précipitation Vent Pression Humidité
    00:00 +16°C° 0.1 mm 1 m/s 692 mmHg 89%
    01:00 +15°C° 0.1 mm 1 m/s 692 mmHg 89%
    02:00 +15°C° 0 mm 1 m/s 692 mmHg 90%
    03:00 +15°C° 0 mm 1 m/s 692 mmHg 90%
    04:00 +15°C° 0 mm 1 m/s 692 mmHg 91%
    05:00 +16°C° 0 mm 1 m/s 692 mmHg 89%
    06:00 +18°C° 0 mm 1 m/s 692 mmHg 88%
    07:00 +16°C° 0 mm 0 m/s 692 mmHg 87%
    08:00 +19°C° 0 mm 0 m/s 693 mmHg 78%
    09:00 +23°C° 0 mm 1 m/s 694 mmHg 69%
    10:00 +26°C° 0 mm 1 m/s 694 mmHg 60%
    11:00 +27°C° 0.1 mm 1 m/s 694 mmHg 57%
    12:00 +27°C° 0.1 mm 1 m/s 694 mmHg 54%
    13:00 +28°C° 0.1 mm 1 m/s 694 mmHg 51%
    14:00 +27°C° 0.4 mm 1 m/s 694 mmHg 55%
    15:00 +27°C° 0.4 mm 1 m/s 694 mmHg 58%
    16:00 +26°C° 0.4 mm 1 m/s 693 mmHg 61%
    17:00 +24°C° 0.3 mm 1 m/s 693 mmHg 69%
    18:00 +22°C° 0.3 mm 1 m/s 693 mmHg 76%
    19:00 +20°C° 0.3 mm 1 m/s 692 mmHg 83%
    20:00 +20°C° 0 mm 1 m/s 693 mmHg 84%
    21:00 +19°C° 0 mm 1 m/s 693 mmHg 85%
    22:00 +18°C° 0 mm 1 m/s 693 mmHg 86%
    23:00 +18°C° 0 mm 1 m/s 693 mmHg 87%

    Après-demain, 28 Août, Mercredi

    Heure Température Précipitation Vent Pression Humidité
    00:00 +18°C° 0 mm 1 m/s 693 mmHg 87%
    01:00 +16°C° 0 mm 1 m/s 692 mmHg 88%
    02:00 +16°C° 0 mm 1 m/s 692 mmHg 88%
    03:00 +16°C° 0 mm 1 m/s 692 mmHg 88%
    04:00 +16°C° 0 mm 1 m/s 692 mmHg 89%
    05:00 +16°C° 0 mm 1 m/s 692 mmHg 87%
    06:00 +16°C° 0 mm 0 m/s 692 mmHg 85%
    07:00 +17°C° 0 mm 0 m/s 693 mmHg 84%
    08:00 +20°C° 0 mm 0 m/s 693 mmHg 75%
    09:00 +22°C° 0 mm 0 m/s 694 mmHg 67%
    10:00 +24°C° 0 mm 0 m/s 694 mmHg 58%
    11:00 +27°C° 0 mm 1 m/s 694 mmHg 54%
    12:00 +28°C° 0 mm 1 m/s 694 mmHg 50%
    13:00 +29°C° 0 mm 1 m/s 694 mmHg 46%
    14:00 +28°C° 0.1 mm 1 m/s 693 mmHg 52%
    15:00 +27°C° 0.1 mm 1 m/s 693 mmHg 58%
    16:00 +26°C° 0.1 mm 1 m/s 693 mmHg 64%
    17:00 +25°C° 0.1 mm 1 m/s 692 mmHg 70%
    18:00 +23°C° 0.1 mm 1 m/s 692 mmHg 76%
    19:00 +21°C° 0.1 mm 1 m/s 691 mmHg 82%
    20:00 +20°C° 0.1 mm 1 m/s 692 mmHg 83%
    21:00 +19°C° 0.1 mm 1 m/s 692 mmHg 84%
    22:00 +19°C° 0.1 mm 1 m/s 692 mmHg 85%
    23:00 +18°C° 0 mm 1 m/s 692 mmHg 85%

    29 Août, Jeudi

    Heure Température Précipitation Vent Pression Humidité
    00:00 +18°C° 0 mm 1 m/s 691 mmHg 85%
    01:00 +18°C° 0 mm 1 m/s 691 mmHg 85%
    02:00 +16°C° 0 mm 1 m/s 691 mmHg 85%
    03:00 +16°C° 0 mm 1 m/s 691 mmHg 86%
    04:00 +16°C° 0 mm 1 m/s 691 mmHg 86%
    05:00 +18°C° 0 mm 1 m/s 691 mmHg 85%
    06:00 +17°C° 0 mm 0 m/s 691 mmHg 83%
    07:00 +17°C° 0 mm 0 m/s 691 mmHg 82%
    08:00 +20°C° 0 mm 0 m/s 692 mmHg 75%
    09:00 +22°C° 0 mm 0 m/s 692 mmHg 67%
    10:00 +24°C° 0 mm 0 m/s 693 mmHg 59%
    11:00 +25°C° 0 mm 0 m/s 693 mmHg 56%
    12:00 +28°C° 0 mm 1 m/s 693 mmHg 53%
    13:00 +28°C° 0 mm 1 m/s 693 mmHg 50%
    14:00 +28°C° 0.2 mm 1 m/s 692 mmHg 53%
    15:00 +27°C° 0.2 mm 1 m/s 692 mmHg 56%
    16:00 +25°C° 0.2 mm 0 m/s 692 mmHg 59%
    17:00 +23°C° 0.2 mm 0 m/s 692 mmHg 66%
    18:00 +21°C° 0.2 mm 0 m/s 692 mmHg 72%
    19:00 +21°C° 0.2 mm 1 m/s 691 mmHg 79%
    20:00 +21°C° 0.5 mm 1 m/s 691 mmHg 80%
    21:00 +20°C° 0.5 mm 1 m/s 692 mmHg 82%
    22:00 +19°C° 0.5 mm 1 m/s 692 mmHg 83%
    23:00 +19°C° 0.1 mm 1 m/s 692 mmHg 84%

    30 Août, Vendredi

    Heure Température Précipitation Vent Pression Humidité
    00:00 +19°C° 0.1 mm 1 m/s 691 mmHg 85%
    01:00 +18°C° 0.1 mm 1 m/s 691 mmHg 86%
    02:00 +18°C° 0 mm 1 m/s 691 mmHg 86%
    03:00 +18°C° 0 mm 1 m/s 691 mmHg 87%
    04:00 +18°C° 0 mm 1 m/s 691 mmHg 88%
    05:00 +18°C° 0.1 mm 1 m/s 691 mmHg 88%
    06:00 +19°C° 0.1 mm 1 m/s 692 mmHg 88%
    07:00 +19°C° 0.1 mm 1 m/s 692 mmHg 87%
    08:00 +21°C° 0.3 mm 1 m/s 692 mmHg 83%
    09:00 +22°C° 0.3 mm 1 m/s 693 mmHg 79%
    10:00 +24°C° 0.3 mm 1 m/s 693 mmHg 74%
    11:00 +24°C° 0.8 mm 1 m/s 693 mmHg 73%
    12:00 +25°C° 0.8 mm 1 m/s 693 mmHg 72%
    13:00 +25°C° 0.8 mm 1 m/s 693 mmHg 70%
    14:00 +25°C° 0.3 mm 1 m/s 693 mmHg 71%
    15:00 +25°C° 0.3 mm 1 m/s 692 mmHg 71%
    16:00 +25°C° 0.3 mm 1 m/s 692 mmHg 72%
    17:00 +23°C° 0 mm 1 m/s 692 mmHg 76%
    18:00 +22°C° 0 mm 1 m/s 692 mmHg 79%
    19:00 +18°C° 0 mm 0 m/s 691 mmHg 83%
    20:00 +20°C° 0.1 mm 1 m/s 691 mmHg 82%
    21:00 +19°C° 0.1 mm 1 m/s 692 mmHg 82%
    22:00 +18°C° 0.1 mm 1 m/s 692 mmHg 82%
    23:00 +18°C° 0 mm 1 m/s 691 mmHg 82%

    31 Août, Samedi

    Heure Température Précipitation Vent Pression Humidité
    00:00 +18°C° 0 mm 1 m/s 691 mmHg 81%
    01:00 +16°C° 0 mm 1 m/s 691 mmHg 80%
    02:00 +16°C° 0 mm 1 m/s 691 mmHg 80%
    03:00 +16°C° 0 mm 1 m/s 691 mmHg 80%
    04:00 +16°C° 0 mm 1 m/s 690 mmHg 80%
    05:00 +18°C° 0 mm 1 m/s 691 mmHg 79%
    06:00 +18°C° 0 mm 1 m/s 691 mmHg 79%
    07:00 +19°C° 0 mm 1 m/s 691 mmHg 79%
    08:00 +21°C° 0 mm 1 m/s 691 mmHg 70%
    09:00 +24°C° 0 mm 1 m/s 692 mmHg 62%
    10:00 +26°C° 0 mm 1 m/s 692 mmHg 53%
    11:00 +27°C° 0 mm 1 m/s 692 mmHg 49%
    12:00 +28°C° 0 mm 1 m/s 692 mmHg 45%
    13:00 +29°C° 0 mm 1 m/s 692 mmHg 41%
    14:00 +28°C° 0 mm 1 m/s 691 mmHg 43%
    15:00 +28°C° 0 mm 1 m/s 691 mmHg 45%
    16:00 +27°C° 0 mm 2 m/s 691 mmHg 48%
    17:00 +25°C° 0 mm 1 m/s 690 mmHg 56%
    18:00 +23°C° 0 mm 1 m/s 690 mmHg 64%
    19:00 +21°C° 0 mm 1 m/s 690 mmHg 72%
    20:00 +20°C° 0 mm 1 m/s 690 mmHg 73%
    21:00 +19°C° 0 mm 1 m/s 690 mmHg 73%
    22:00 +19°C° 0 mm 1 m/s 690 mmHg 74%
    23:00 +19°C° 0 mm 1 m/s 690 mmHg 75%
    Voir plus